Regional Weather Roundup
Issued by NWS

Home | Current Version | Previous Version | Text Only | Print | Product List | Glossary On
Versions: 1 2 3 4 5 6 7 8 9 10 11 12 13 14 15 16 17 18 19 20 21 22 23 24 25 26 27 28 29 30 31 32 33 34 35 36 37 38 39 40 41 42 43 44 45 46 47 48 49 50
000
ASUS43 KMKX 210100
RWRWI

WISCONSIN REGIONAL WEATHER ROUNDUP
NATIONAL WEATHER SERVICE MILWAUKEE/SULLIVAN WI
800 PM CDT SAT SEP 20 2014

NOTE: "FAIR" INDICATES FEW OR NO CLOUDS BELOW 12,000 FEET WITH NO
SIGNIFICANT WEATHER AND/OR OBSTRUCTIONS TO VISIBILITY.

WIZ001-002-006>008-014>016-023>028-210200-
NORTHWEST WISCONSIN

CITY           SKY/WX    TMP DP  RH WIND       PRES   REMARKS
SUPERIOR ARPT  RAIN      56  53  89 W10G16    29.71R
ASHLAND        CLOUDY    53  52  96 CALM      29.68F
HAYWARD        RAIN      56  53  90 VRB6      29.75R FOG
SIREN          CLOUDY    56  55  95 W7        29.76R
RICE LAKE      CLOUDY    57  53  87 NW5       29.75S
LADYSMITH      CLOUDY    62  55  79 CALM      29.73F
EAU CLAIRE     TSTM      62  57  83 NW30G38   29.75R
MENOMONIE      RAIN      61  57  88 N7G30     29.73R
NEW RICHMOND   CLOUDY    58  57  97 NW3       29.78R
OSCEOLA        MOCLDY    58  58  99 W9        29.80R
$$

WIZ003>005-009-010-017-018-210200-
NORTH CENTRAL WISCONSIN

CITY           SKY/WX    TMP DP  RH WIND       PRES   REMARKS
WOODRUFF       PTCLDY    59  52  77 CALM      29.71S
RHINELANDER    MOCLDY    57  53  86 W5        29.71F
EAGLE RIVER    CLEAR     58  52  82 CALM      29.71F
LAND O LAKES   CLEAR     56  52  85 N3        29.72F
PHILLIPS       CLOUDY    60  53  77 CALM      29.71R
TOMAHAWK       MOCLDY    58  52  81 CALM      29.72S
MEDFORD        CLOUDY    61  54  76 W5        29.72S
MERRILL        MOCLDY    63  56  77 W3        29.70F
$$

WIZ029-030-035-036-043>047-210200-
CENTRAL WISCONSIN

CITY           SKY/WX    TMP DP  RH WIND       PRES   REMARKS
WAUSAU         MOCLDY    65  55  70 W9        29.69F
MOSINEE        NOT AVBL
MARSHFIELD     CLOUDY    64  57  78 W5        29.71F
STEVENS POINT  MOCLDY    65  56  74 SW3       29.71F
WAUPACA        MOCLDY    67  58  73 CALM      29.71S
WAUTOMA        NOT AVBL
WISC RAPIDS    MOCLDY    65  57  75 SW3       29.72F
CAMP DOUGLAS   NOT AVBL
$$

WIZ011>013-019>022-031-037>040-048>050-210200-
NORTHEAST WISCONSIN

CITY           SKY/WX    TMP DP  RH WIND       PRES   REMARKS
ANTIGO         CLEAR     62  55  80 W5        29.70F
STURGEON BAY   PTCLDY    66  61  82 W5        29.68R
GREEN BAY      CLEAR     67  58  72 W8        29.69R
MANITOWOC      NOT AVBL
APPLETON       MOCLDY    63  57  82 W7        29.71S
CLINTONVILLE   CLEAR     66  55  68 CALM      29.68F
OSHKOSH        CLEAR     67  62  84 SW5       29.71S
$$

WIZ032>034-041-042-053>061-210200-
SOUTHWEST WISCONSIN

CITY           SKY/WX    TMP DP  RH WIND       PRES   REMARKS
LA CROSSE      LGT RAIN  68  60  75 W24       29.74R
SPARTA         PTCLDY    62  60  93 CALM      29.73F
VIROQUA        FAIR      66  56  71 SW3       29.75S
BOSCOBEL       CLEAR     65  60  84 CALM      29.74F
PRAIRIE DU CHI PTCLDY    66  59  78 CALM      29.73F
PLATTEVILLE    FAIR      68  62  80 SW7       29.78S
$$

WIZ056-057-062-063-064-067-068-210200-
SOUTH CENTRAL WISCONSIN

CITY           SKY/WX    TMP DP  RH WIND       PRES   REMARKS
BARABOO/DELLS  CLEAR     66  58  75 SW5       29.74S
LONE ROCK      NOT AVBL
WATERTOWN      CLEAR     68  62  81 SW3       29.74F
MADISON        PTCLDY    69  62  78 SW3       29.74F
MIDDLETON      FAIR      64  64  97 CALM      29.75F
MONROE         PTCLDY    70  64  83 SW8       29.77S
JANESVILLE     PTCLDY    70  63  78 SW8       29.76S
$$

WIZ051-052-058>065-066-070>072-210200-
SOUTHEAST WISCONSIN

CITY           SKY/WX    TMP DP  RH WIND       PRES   REMARKS
MILWAUKEE      MOCLDY    71  63  75 SW8       29.75R
WAUKESHA       NOT AVBL
MILWAUKEE/TIMM PTCLDY    70  61  73 SW5       29.75S
RACINE         CLEAR     69  63  81 SW8       29.78R
BURLINGTON     PTCLDY    63  61  93 S6        29.77S
KENOSHA        CLEAR     67  63  87 SW7       29.78R
FOND DU LAC    PTCLDY    66  62  87 SW7       29.72S
SHEBOYGAN      CLEAR     65  60  84 SW8       29.72R
WEST BEND      CLEAR     66  59  77 SW6       29.74R
JUNEAU         CLEAR     64  61  88 SW6       29.75S
$$

LSZ147-162-210200-
LAKE SUPERIOR

STATION/POSITION TIME  TEMP    WIND        PRES    WAVE
                       AIR SEA DIR/SP/G            HT/PER
                 (UTC) (F)     (DEG/KT/KT) (MB)    (FT/S)
W MID LAKE BUOY  2350   52 47  250/  6/  8 1005.5R   2/ 4
DEVILS ISLAND    0000   59      20/  4/  4 1005.6F
PORT WING        0000   56      CALM  /  1 1005.1F
SAXON HARBOR     0000   57     160/  3/  4 1005.4
$$

LMZ867-665-643>646-210200-
LAKE MICHIGAN

STATION/POSITION TIME  TEMP    WIND        PRES    WAVE
                       AIR SEA DIR/SP/G            HT/PER
                 (UTC) (F)     (DEG/KT/KT) (MB)    (FT/S)
N MID LAKE BUOY  2350   61 58  290/  8/ 10 1003.7F   4/ 6
NORTHPORT PIER   0000   67     280/  3/  5 1004.1F
SISTER BAY       0042             CALM       N/A
KEWAUNEE LAKESHO 0000   70     210/  6/  9 1004.1S
SHEBOYGAN LAKESH 0000   71 53  240/  8/  9 1006.0R
PORT WASHINGTON  0000   73     250/  4/  7 1007.1S
ATWATER BUOY     0000   68     230/  6/  8 1008.3R
MILWAUKEE LAKESH 0000   72     240/  6/  9   N/A
S MID LAKE BUOY  2350   66 63  230/ 12/ 14 1007.8R   2/ 4
KENOSHA   LAKESH 0000   71     220/  8/ 14 1007.8S
$$

TC  - TEMPERATURE IN CELSIUS
VSB - VISIBILITY IN STATUTE MILES
WCI - WIND CHILL INDEX
HX  - HEAT INDEX




USA.gov is the U.S. government's official web portal to all federal, state and local government web resources and services.